Weather History for KFAY - March, 2013

Change the Weather History Date:

Tuesday, March 12, 2013

  Actual Average Record
Temperature  
Mean Temperature 64 °F 53 °F  
Max Temperature 75 °F 65 °F 83 °F (1990)
Min Temperature 52 °F 41 °F 21 °F (1934)
Degree Days  
Heating Degree Days 1 12  
Month to date heating degree days 209 165  
Since 1 July heating degree days 2305 2390  
Cooling Degree Days 0 0  
Month to date cooling degree days 0 0  
Year to date cooling degree days 5 4  
Growing Degree Days 17 (Base 50)    
Moisture  
Dew Point 56 °F    
Average Humidity 65    
Maximum Humidity 97    
Minimum Humidity 33    
Precipitation  
Precipitation 0.46 in 0.10 in 1.50 in (1962)
Month to date precipitation 0.58 1.26  
Year to date precipitation 6.22 7.32  
Sea Level Pressure  
Sea Level Pressure 29.83 in    
Wind  
Wind Speed 11 mph (SSW)    
Max Wind Speed 21 mph    
Max Gust Speed 30 mph    
Visibility 9 miles    
Events Rain    
T = Trace of Precipitation, MM = Missing Value Source: NWS Daily Summary

Daily Weather History Graph

Daily Weather History Graph

Search for Another Location

Airport or City:

Trip Planner

Search our weather history database for the weather conditions in past years. The results will help you decide how hot, cold, wet, or windy it might be!

Date:

Astronomy

Mar. 12, 2013 Rise Set
Actual Time 7:29 AM EDT 7:20 PM EDT
Civil Twilight 7:04 AM EDT 7:46 PM EDT
Nautical Twilight 6:35 AM EDT 8:15 PM EDT
Astronomical Twilight 6:05 AM EDT 8:45 PM EDT
Moon 7:39 AM EDT (3/12) 8:29 PM EDT (3/12)
Length of Visible Light 12h 41m
Length of Day
11h 50m
New Moon, 1% of the Moon is Illuminated
Mar 12
New Moon
Mar 19
First Quarter
Mar 27
Full
Apr 3
Last Quarter
Apr 10
New

Hourly Weather History & Observations

Time (EDT) Temp. Dew Point Humidity Pressure Visibility Wind Dir Wind Speed Gust Speed Precip Events Conditions
12:53 AM 59.0 °F 54.0 °F 83% 29.93 in 10.0 mi Calm Calm - N/A   Mostly Cloudy
1:53 AM 60.1 °F 55.0 °F 83% 29.89 in 10.0 mi SE 8.1 mph - N/A   Mostly Cloudy
2:44 AM 59.0 °F 55.4 °F 88% 29.90 in 10.0 mi SSE 4.6 mph - 0.00 in   Overcast
2:53 AM 59.0 °F 55.9 °F 90% 29.88 in 10.0 mi SSE 6.9 mph - 0.00 in   Overcast
3:38 AM 59.0 °F 57.2 °F 94% 29.85 in 7.0 mi SE 10.4 mph - 0.02 in Rain Light Rain
3:53 AM 59.0 °F 57.0 °F 93% 29.84 in 10.0 mi SE 9.2 mph - 0.02 in Rain Light Rain
4:53 AM 59.0 °F 57.9 °F 96% 29.82 in 8.0 mi SSE 8.1 mph - 0.07 in Rain Light Rain
5:53 AM 61.0 °F 59.0 °F 93% 29.82 in 8.0 mi SSE 9.2 mph - 0.06 in Rain Light Rain
6:03 AM 62.6 °F 60.8 °F 94% 29.84 in 9.0 mi South 11.5 mph - 0.00 in Rain Light Rain
6:19 AM 62.6 °F 60.8 °F 94% 29.83 in 6.0 mi South 11.5 mph - 0.04 in Rain Light Rain
6:43 AM 62.6 °F 60.8 °F 94% 29.83 in 5.0 mi South 12.7 mph - 0.11 in Rain Rain
6:53 AM 62.1 °F 61.0 °F 96% 29.81 in 4.0 mi South 10.4 mph 20.7 mph 0.16 in Rain Rain
7:53 AM 62.1 °F 61.0 °F 96% 29.81 in 8.0 mi South 11.5 mph - 0.10 in Rain Light Rain
8:49 AM 62.6 °F 60.8 °F 94% 29.83 in 10.0 mi SSW 11.5 mph - 0.02 in   Overcast
8:53 AM 63.0 °F 61.0 °F 93% 29.82 in 10.0 mi SSW 11.5 mph - 0.02 in Rain Light Rain
9:53 AM 64.0 °F 62.1 °F 93% 29.81 in 10.0 mi South 11.5 mph - 0.00 in   Overcast
10:53 AM 64.9 °F 61.0 °F 87% 29.82 in 8.0 mi SSW 11.5 mph - 0.01 in Rain Light Rain
11:02 AM 64.4 °F 60.8 °F 88% 29.84 in 7.0 mi SSW 10.4 mph - 0.01 in Rain Light Rain
11:53 AM 64.9 °F 62.1 °F 90% 29.82 in 10.0 mi SSW 11.5 mph - 0.02 in   Overcast
12:53 PM 64.0 °F 61.0 °F 90% 29.82 in 10.0 mi SSW 15.0 mph 26.5 mph 0.00 in   Overcast
1:12 PM 64.4 °F 60.8 °F 88% 29.83 in 10.0 mi SW 13.8 mph 24.2 mph N/A   Overcast
1:53 PM 66.0 °F 62.1 °F 87% 29.80 in 10.0 mi SW 13.8 mph 21.9 mph 0.00 in   Overcast
2:03 PM 66.2 °F 62.6 °F 88% 29.81 in 10.0 mi SW 12.7 mph 21.9 mph N/A   Overcast
2:23 PM 69.8 °F 62.6 °F 78% 29.80 in 10.0 mi SSW 10.4 mph - N/A   Mostly Cloudy
2:53 PM 71.1 °F 60.1 °F 68% 29.76 in 10.0 mi SW 12.7 mph - N/A   Partly Cloudy
3:53 PM 73.9 °F 57.0 °F 55% 29.74 in 10.0 mi SW 12.7 mph 21.9 mph N/A   Partly Cloudy
4:53 PM 75.0 °F 54.0 °F 48% 29.74 in 10.0 mi WSW 12.7 mph 21.9 mph N/A   Partly Cloudy
5:53 PM 75.0 °F 52.0 °F 44% 29.74 in 10.0 mi WSW 12.7 mph - N/A   Scattered Clouds
6:53 PM 72.0 °F 48.0 °F 43% 29.77 in 10.0 mi WNW 9.2 mph - N/A   Partly Cloudy
7:53 PM 68.0 °F 48.9 °F 50% 29.80 in 10.0 mi NW 10.4 mph - N/A   Clear
8:53 PM 64.0 °F 48.9 °F 58% 29.83 in 10.0 mi NW 8.1 mph - N/A   Clear
9:53 PM 62.1 °F 42.1 °F 48% 29.87 in 10.0 mi NNW 16.1 mph 21.9 mph N/A   Clear
10:53 PM 59.0 °F 30.9 °F 35% 29.89 in 10.0 mi NNW 13.8 mph 20.7 mph N/A   Clear
11:53 PM 55.0 °F 30.9 °F 40% 29.92 in 10.0 mi NNW 11.5 mph - N/A   Clear